Regional Weather Roundup
Issued by NWS Charleston, WV

Home | Current Version | Previous Version | Graphics & Text | Print | Product List | Glossary On
Versions: 1 2 3 4 5 6 7 8 9 10 11 12 13 14 15 16 17 18 19 20 21 22 23 24 25 26 27 28 29 30 31 32 33 34 35 36 37 38 39 40 41 42 43 44 45 46 47 48 49 50
898
ASUS41 KRLX 191010
RWRRLX
West Virginia Regional Weather Roundup
National Weather Service Charleston WV
500 AM EST THU JAN 19 2017

Note: "fair" indicates few or no clouds below 12,000 feet with no
significant weather and/or obstructions to visibility.

WVZ003-191100-
Northern Panhandle of West Virginia

CITY           SKY/WX    TMP DP  RH WIND       PRES   REMARKS
WHEELING       CLOUDY    36  34  92 SW8       30.08F
$$

WVZ009-191100-
Northwest West Virginia

CITY           SKY/WX    TMP DP  RH WIND       PRES   REMARKS
PARKERSBURG    CLOUDY    40  36  86 CALM      30.15S
$$

WVZ006-191100-
Western West Virginia

CITY           SKY/WX    TMP DP  RH WIND       PRES   REMARKS
HUNTINGTON     CLOUDY    41  36  82 CALM      30.10F
$$

WVZ015-191100-
West Central West Virginia

CITY           SKY/WX    TMP DP  RH WIND       PRES   REMARKS
CHARLESTON     CLOUDY    43  37  79 CALM      30.10F
$$

WVZ022-031-191100-
North Central West Virginia

CITY           SKY/WX    TMP DP  RH WIND       PRES   REMARKS
CLARKSBURG     CLOUDY    39  35  86 SW7       30.09F
MORGANTOWN     CLOUDY    39  34  82 SW5       30.10F
$$

WVZ025-035-042-045-191100-
Southern West Virginia

CITY           SKY/WX    TMP DP  RH WIND       PRES   REMARKS
BECKLEY        FOG       35  35 100 CALM      30.07S VSB 1/4
LOGAN            N/A     37  37 100 CALM      30.08F FOG
BLUEFIELD      CLOUDY    35  33  92 W5        30.07S
LEWISBURG      CLOUDY    37  35  92 SW3       30.07S
$$

WVZ047-191100-
Northern Mountains of West Virginia

CITY           SKY/WX    TMP DP  RH WIND       PRES   REMARKS
ELKINS         CLOUDY    38  34  85 W3        30.08F
$$

WVZ052-191100-
Eastern Panhandle of West Virginia

CITY           SKY/WX    TMP DP  RH WIND       PRES   REMARKS
MARTINSBURG    CLOUDY    44  34  67 CALM      30.06F
PETERSBURG     CLOUDY    31  30  98 CALM      30.09S FOG
$$




USA.gov is the U.S. government's official web portal to all federal, state and local government web resources and services.